View from above orbital plane
|
View from above satellite
|
Ground track
|
The orbit data is extracted from the following two-line orbital elements,
1 25544U 98067A 21027.50273349 .00016717 00000-0 10270-3 0 9024
2 25544 51.6440 318.5686 0002320 306.1407 53.9528 15.48882114 26784
Epoch (UTC): | 27 January 2021 12:03:56 |
Eccentricity: | 0.0002320 |
inclination: | 51.6440° |
perigee height: | 418 km |
apogee height: | 421 km |
right ascension of ascending node: | 318.5686° |
argument of perigee: | 306.1407° |
revolutions per day: | 15.48882114 |
mean anomaly at epoch: | 53.9528° |
orbit number at epoch: | 2678 |
The dashed part of the orbit path shows where the satellite is in the earth's shadow,
|
|